Flag for Uruguay Weather past 2 weeks in Canelones, Uruguay

Now
52 °F

Fog.


Feels Like: 51 °F
Forecast: 41 / 64 °F
Wind: 3 mph from North

Location: Carrasco

Current Time: May 25, 2015 at 10:49:27 PM

Latest Report: May 25, 2015 at 10:00 PM


Visibility: 3 mi

Pressure: 30.12 "Hg

Humidity: 77%

Dew point: 45 °F

Location of CanelonesLocation

Historic Weather in Canelones — Graph

°F

Canelones temperature yesterday

Maximum temperature yesterday: 61 °F (at 12:00 AM)
Minimum temperature yesterday: 48 °F (at 11:00 PM)
Average temperature yesterday: 58 °F

Past Weeks' High & Low Weather Summary

 TemperatureHumidityPressure
High82 °F (May 21, 3:00 PM)100% (May 13, 8:00 AM)30.27 "Hg (May 13, 8:00 AM)
Low43 °F (May 25, 6:00 AM)43% (May 25, 3:00 PM)29.68 "Hg (May 23, 2:00 PM)
Average65 °F78%30.08 "Hg
* Reported May 10 9:00 PM — May 25 9:00 PM, Canelones, Weather by CustomWeather, © 2015

Note: Actual official high and low records may vary slightly from our data, if they occured in-between our weather recording intervals... More about our weather records

Advertising

Canelones weather history for previous 24 hours

 ConditionsComfort  
Time TempWeatherWind HumidityBarometerVisibility
9:00 PM
Mon, May 25
54 °FClear.3 mph72%30.12 "Hg10 mi
8:00 PM54 °FClear.3 mph72%30.12 "Hg10 mi
7:00 PM54 °FClear.3 mph72%30.09 "Hg10 mi
6:00 PM55 °FClear.5 mph63%30.09 "Hg10 mi
5:00 PM61 °FClear.6 mph52%30.09 "Hg10 mi
4:00 PM63 °FSunny.6 mph56%30.09 "Hg10 mi
3:00 PM64 °FPartly sunny.7 mph43%30.09 "HgN/A
2:00 PM64 °FPartly sunny.10 mph46%30.09 "HgN/A
1:00 PM63 °FPartly sunny.8 mph49%30.12 "HgN/A
12:00 PM63 °FPartly sunny.10 mph49%30.12 "HgN/A
11:00 AM59 °FPassing clouds.6 mph48%30.15 "HgN/A
10:00 AM54 °FScattered clouds.5 mph72%30.12 "HgN/A
9:00 AM46 °FScattered clouds.3 mph82%30.12 "HgN/A
8:00 AM43 °FScattered clouds.5 mph87%30.12 "HgN/A
7:00 AM43 °FSunny.3 mph87%30.12 "Hg10 mi
6:00 AM43 °FClear.5 mph87%30.09 "Hg10 mi
5:00 AM45 °FClear.No wind81%30.09 "Hg10 mi
4:00 AM46 °FClear.No wind76%30.09 "Hg10 mi
3:00 AM45 °FClear.3 mph81%30.12 "Hg10 mi
2:00 AM46 °FClear.No wind76%30.12 "Hg10 mi
1:00 AM46 °FClear.3 mph76%30.12 "Hg10 mi
12:00 AM48 °FClear.3 mph71%30.12 "Hg10 mi
11:00 PM
Sun, May 24
48 °FClear.3 mph76%30.09 "Hg10 mi
10:00 PM50 °FClear.No wind71%30.09 "Hg10 mi
Weather by CustomWeather, © 2015

See weather overviewHow to use our weather pages